Regional Weather Roundup
Issued by NWS Bismarck, ND

Home | Current Version | Previous Version | Text Only | Print | Product List | Glossary On
Versions: 1 2 3 4 5 6 7 8 9 10 11 12 13 14 15 16 17 18 19 20 21 22 23 24 25 26 27 28 29 30 31 32 33 34 35 36 37 38 39 40 41 42 43 44 45 46 47 48 49 50
000
ASUS43 KBIS 250102
RWRBIS

NWR BROADCAST TEXT
NATIONAL WEATHER SERVICE BISMARCK ND
800 PM CDT SAT JUN 24 2017

NOTE: "FAIR" INDICATES FEW OR NO CLOUDS BELOW 12,000 FEET WITH NO
SIGNIFICANT WEATHER AND/OR OBSTRUCTIONS TO VISIBILITY.


CITY           SKY/WX    TMP DP  RH WIND       PRES   REMARKS
WILLISTON      MOSUNNY   69  33  26 N10       30.27F
MINOT          MOSUNNY   61  37  41 NW17      30.24S
MINOT AFB      MOSUNNY   61  36  39 NW17      30.22F
BISMARCK       MOSUNNY   62  38  40 N15G25    30.25R
DICKINSON      SUNNY     61  29  29 N14       30.27S
GARRISON         N/A     58  38  47 N14       30.25R
HETTINGER ARPT CLOUDY    64  30  27 N15G24    30.29R
JAMESTOWN      CLOUDY    55  45  68 NW21G30   30.19R
HAZEN          MOCLDY    63  36  36 N16G24    30.28R
LINTON         FAIR     N/A N/A N/A N14G22    30.25R
MANDAN         MOCLDY    61  37  41 N22       30.25S
STANLEY        FAIR      61  36  39 N15       30.28F
TIOGA          FAIR      61  34  36 N15       30.28S
WATFORD CITY   FAIR      63  37  39 N10       30.27S
$$

CITY           SKY/WX    TMP DP  RH WIND       PRES   REMARKS
GRAND FORKS    LGT RAIN  51  50  96 N14       30.14R FOG
GRAND FORKS AF CLOUDY    51  46  80 N17G24    30.15S
DEVILS LAKE    CLOUDY    56  43  61 N15       30.20R
FARGO          CLOUDY    56  47  71 N24G32    30.13R
GRAFTON        MOCLDY    54  45  71 NW15G22   30.16R
GWINNER        CLOUDY    57  46  67 NW18G25   30.17R
LANGDON        FAIR      54  46  76 N16       30.18S
ROLLA            N/A     54  46  76 NW18      30.22R
$$

CITY           SKY/WX    TMP DP  RH WIND       PRES   REMARKS
ABERDEEN       CLOUDY    60  44  55 NW18G25   30.20R
MOBRIDGE       SUNNY     66  37  34 N14G22    30.21R
BUFFALO          N/A     69  31  24 N16G25    30.22R
RAPID CITY     SUNNY     72  29  20 N14G28    30.26R
GLASGOW        MOSUNNY   71  32  23 W6        30.26F
SIDNEY         MOSUNNY   67  35  30 E9        30.27
WOLF POINT     MOSUNNY   72  31  22 NE6       30.26S
GLENDIVE       MOSUNNY   68  32  26 N10       30.28F
MILES CITY     MOSUNNY   71  26  18 NE14G21   30.28R
BAKER          MOSUNNY   67  29  24 N16       30.30S
$$

CITY           SKY/WX    TMP DP  RH WIND       PRES   REMARKS
BILLINGS       MOSUNNY   72  32  23 E14       30.28R
GREAT FALLS    MOSUNNY   68  36  30 NE12      30.28F
$$





USA.gov is the U.S. government's official web portal to all federal, state and local government web resources and services.